Wind_Speed
37 37 38 39 42 42 40 37 36 34 34 34 35 37 37 36 35 36 35 33 33 32 31 30 30 30 30 29 28 27 26 25 23 22 21 20 18 16 15 14 12 11 10 8 7 6 5 4 4
39 40 41 43 45 45 42 40 39 37 37 37 39 40 40 40 38 37 36 35 35 35 33 33 32 32 32 31 30 29 28 26 25 24 23 22 20 18 17 15 14 13 11 10 8 7 6 5 5
42 43 45 47 48 47 45 44 42 41 41 41 42 43 43 42 40 39 38 37 37 37 36 35 35 34 34 33 32 31 30 28 27 26 25 23 22 20 18 17 16 14 13 11 10 8 8 7 6
45 46 49 51 51 48 48 48 46 46 46 45 46 47 46 44 43 41 41 40 40 40 39 38 37 36 36 35 35 33 32 31 29 28 27 25 24 22 20 19 17 16 15 13 11 10 9 8 7
47 49 52 54 53 51 51 51 50 49 49 49 49 50 49 47 46 44 44 44 43 42 42 41 39 38 38 37 37 36 34 33 31 30 28 27 25 23 22 20 19 18 16 15 13 12 11 10 9
50 53 56 56 55 53 53 53 54 54 53 53 54 53 52 50 49 48 47 47 46 45 44 44 42 41 40 39 39 38 37 35 34 32 30 28 27 25 23 22 21 20 18 17 15 14 12 11 10
52 56 57 58 57 56 55 56 56 57 57 56 57 57 55 54 53 51 50 49 49 48 47 46 45 43 42 42 41 40 38 37 36 34 32 30 28 27 25 24 23 21 20 18 17 16 14 13 12
53 57 59 58 58 57 56 57 58 59 59 59 60 59 57 57 56 55 53 52 52 51 50 49 48 46 45 44 43 42 40 39 38 36 34 32 30 29 27 26 25 23 22 20 19 17 16 14 14
53 57 59 57 58 57 56 58 59 60 61 61 62 62 60 59 59 57 56 55 55 54 53 51 50 49 47 46 45 44 43 41 40 38 36 34 32 31 29 28 26 25 23 22 20 19 18 16 15
53 56 56 55 57 57 56 57 58 60 62 62 63 63 62 62 61 60 58 58 57 56 55 53 52 51 50 48 47 46 45 43 41 39 37 36 34 33 31 30 28 27 25 23 22 21 20 18 17
51 53 53 53 55 56 56 56 56 59 60 61 62 63 64 63 62 62 61 60 59 58 57 55 54 53 52 50 48 47 46 45 43 41 39 37 36 34 33 31 30 29 27 25 24 22 21 20 19
49 50 50 50 51 53 55 56 56 56 57 59 62 63 65 64 63 63 63 62 61 60 59 58 57 55 54 52 50 49 48 46 45 43 41 39 37 35 34 33 31 30 29 27 26 24 23 22 21
48 48 48 48 49 50 52 54 56 55 55 58 62 63 65 65 63 64 65 64 63 62 61 60 59 57 56 54 52 50 49 47 46 45 43 41 39 37 35 34 33 31 30 29 27 26 25 24 23
45 46 46 46 47 47 49 51 54 52 52 55 59 62 64 64 64 64 66 66 65 63 62 61 60 59 58 56 54 52 51 49 48 46 44 43 41 39 37 36 34 33 32 30 29 27 26 25 25
44 44 44 43 44 45 48 49 49 49 52 54 56 60 62 63 63 63 65 66 66 65 64 63 62 61 59 58 56 53 52 51 49 48 46 44 42 40 39 37 35 34 32 31 30 29 28 27 26
43 43 42 40 40 41 45 46 43 45 49 52 54 57 60 62 61 62 64 66 66 66 65 64 63 62 61 59 58 56 54 53 51 49 47 45 44 42 40 38 37 35 33 32 31 30 29 28 27
41 41 40 38 36 38 41 41 38 41 44 48 51 55 59 60 61 62 63 65 66 66 66 65 64 62 61 60 58 57 56 54 53 51 49 47 45 43 42 40 38 36 34 33 32 31 30 29 28
40 39 39 36 34 36 39 38 35 37 40 42 48 53 56 59 61 62 63 64 66 67 67 66 65 63 62 61 59 58 56 55 54 52 50 49 47 45 43 41 39 37 36 34 33 32 31 30 30
39 38 37 34 33 35 36 35 32 33 37 40 45 50 53 57 60 62 63 63 65 67 67 67 66 64 62 61 59 58 56 55 54 53 51 50 48 46 44 42 40 38 37 35 34 33 32 31 31
36 36 35 33 31 33 33 32 30 31 34 36 42 47 50 54 59 61 63 63 64 66 67 67 67 65 63 61 59 59 56 54 54 53 52 50 49 48 46 44 42 40 38 36 36 35 33 33 32
34 33 34 33 30 29 31 30 30 29 30 32 38 43 47 52 57 59 62 64 64 66 67 67 66 65 63 61 59 59 58 55 54 52 52 51 49 48 47 46 44 42 40 38 37 36 35 34 34
32 31 31 29 28 27 26 28 26 26 27 30 35 40 44 50 55 57 60 63 64 65 66 66 66 66 64 62 60 59 57 55 52 52 52 51 50 49 48 46 45 43 42 40 39 38 37 36 35
31 29 27 25 24 23 21 24 22 23 25 27 32 38 42 47 53 56 59 62 64 64 65 66 66 66 65 63 60 58 56 54 53 52 52 51 50 49 48 47 45 44 43 42 41 40 39 38 37
30 27 24 21 21 19 18 21 21 21 24 26 30 36 40 44 51 54 58 61 63 65 65 65 66 65 65 63 62 59 56 56 54 52 52 51 50 49 48 47 46 44 44 43 42 41 40 39 38
27 25 22 19 18 18 17 18 18 20 22 24 27 33 38 43 49 53 56 60 62 63 65 66 66 65 65 64 63 60 56 55 54 51 51 51 50 48 48 47 46 45 44 44 43 42 41 39 38
25 22 20 20 19 18 17 17 16 17 20 23 25 30 36 43 46 51 55 59 61 63 65 65 66 65 64 64 63 61 59 56 54 52 50 50 49 48 49 48 47 46 45 44 43 42 41 40 39
23 21 20 20 20 19 17 16 15 14 17 21 24 29 35 41 44 49 54 58 60 62 64 66 65 65 64 62 63 61 59 57 55 54 51 50 49 49 48 48 48 46 45 44 43 42 41 40 40
23 21 20 20 21 20 18 18 17 15 17 21 24 28 34 39 43 47 52 57 59 61 62 63 65 65 64 61 61 61 59 57 55 53 51 49 48 48 48 48 47 46 45 43 42 42 41 40 39
22 21 20 21 21 22 22 20 18 17 17 20 24 28 33 38 42 45 50 55 58 59 61 62 63 64 64 61 60 61 59 57 56 54 52 49 48 48 48 47 46 45 44 43 42 41 40 39 39
22 21 21 21 22 22 23 20 19 19 19 20 23 27 31 36 41 44 47 52 57 59 59 60 63 63 62 61 60 59 59 57 56 54 52 50 48 47 47 47 46 45 44 43 41 40 39 39 39
Wind_Direction
275 273 271 269 267 265 265 264 262 259 256 253 250 249 247 246 245 245 243 237 235 234 232 230 229 227 226 224 223 223 222 222 222 222 222 222 223 225 227 225 223 220 220 222 225 231 238 244 258
274 272 270 267 266 265 265 265 263 260 256 252 250 248 246 244 244 244 242 238 235 234 232 230 229 227 226 225 223 224 223 223 222 223 223 223 225 226 227 226 225 223 223 225 229 235 242 247 256
273 271 269 267 266 266 268 266 263 259 255 251 249 247 246 244 243 242 240 238 234 232 231 230 228 227 225 225 224 224 224 224 223 223 224 224 226 227 227 226 226 225 225 227 231 236 242 247 254
272 270 269 267 268 268 266 264 261 257 254 251 249 247 246 245 243 240 238 237 234 232 230 228 227 227 225 224 224 224 225 225 224 224 224 225 226 227 227 227 226 226 227 230 233 238 242 246 253
272 270 268 268 268 267 265 263 261 257 253 251 249 247 246 244 242 239 236 235 233 231 230 227 226 226 225 224 224 223 224 225 225 225 225 226 226 227 227 227 226 227 228 231 235 240 244 247 252
271 270 269 269 269 267 265 262 259 256 252 250 248 246 245 243 241 238 235 234 232 230 229 227 225 224 225 224 224 223 223 225 226 226 226 226 227 227 227 228 227 228 230 233 236 240 244 247 252
272 271 270 270 269 266 264 261 258 256 252 249 248 246 244 242 239 236 234 232 230 229 227 226 225 224 224 224 224 223 223 224 226 226 226 227 228 228 227 228 229 229 231 234 236 239 243 247 251
274 272 271 270 269 266 263 260 258 255 253 249 247 245 243 240 238 235 232 230 229 228 226 225 225 224 223 223 223 223 223 223 225 226 226 227 228 228 228 229 230 231 233 236 237 240 243 247 251
274 272 272 271 269 266 262 259 256 255 252 249 246 244 241 239 236 233 230 228 227 226 225 224 224 223 223 223 223 223 223 223 224 226 227 227 228 228 229 230 231 232 234 237 238 241 243 247 251
275 273 273 272 269 266 262 259 257 255 252 248 245 242 239 237 234 231 228 226 225 225 224 223 222 222 223 223 223 223 224 224 224 225 226 227 228 229 229 230 232 233 235 237 239 242 245 248 251
278 277 275 272 269 267 264 260 257 256 252 247 244 240 236 235 233 230 227 225 223 223 223 222 221 221 222 222 223 223 224 224 224 224 225 227 228 229 230 231 233 234 236 238 240 243 246 248 251
282 280 276 273 270 268 266 261 256 254 252 247 242 239 235 232 230 228 225 223 222 221 221 220 220 220 220 221 222 223 224 224 224 225 225 227 228 229 231 231 233 235 236 238 241 244 246 249 251
285 281 278 275 272 269 266 262 256 252 250 245 240 236 233 230 227 225 223 221 220 219 219 219 219 219 219 220 221 222 223 224 225 225 226 227 228 229 231 231 233 235 237 239 241 244 247 249 251
287 284 280 277 274 270 266 261 255 252 248 244 239 235 231 229 225 223 221 219 218 217 217 218 218 218 218 219 221 221 223 223 225 225 226 227 228 229 231 232 233 235 237 240 242 244 248 250 251
289 287 283 279 276 271 266 261 255 252 247 243 238 233 228 227 224 221 219 218 216 215 216 216 217 217 218 219 220 220 222 223 224 225 226 227 228 229 231 232 233 235 237 240 242 244 247 250 252
292 289 287 282 277 272 267 262 255 252 247 242 237 232 226 224 222 220 217 216 215 214 214 215 216 217 217 218 219 220 221 222 224 225 225 226 227 229 230 232 233 235 237 240 242 244 247 249 252
296 293 290 285 278 273 268 265 257 250 245 241 236 231 225 221 219 218 216 214 214 213 213 214 215 216 217 218 219 220 221 222 223 225 225 226 227 229 230 232 233 235 237 240 242 244 246 248 251
298 294 291 286 280 274 270 265 258 249 243 239 235 230 226 220 217 215 214 213 213 213 212 213 214 215 217 218 218 219 221 222 223 224 225 226 228 229 230 231 233 235 237 239 241 244 246 249 252
299 295 293 288 281 276 270 264 259 250 243 239 236 231 226 220 215 213 212 212 212 212 212 212 213 214 216 217 218 219 220 222 223 224 225 226 227 229 230 231 233 235 237 239 242 244 247 250 253
302 297 294 290 282 277 271 264 257 252 246 241 237 231 225 219 215 212 210 210 211 211 211 211 212 214 215 217 218 219 221 222 223 224 225 226 228 229 230 231 233 234 237 240 242 244 247 251 254
306 301 297 293 286 279 272 264 258 254 249 240 235 229 225 221 216 213 210 209 210 211 211 211 212 213 214 216 218 220 221 222 222 224 226 227 228 229 230 231 233 235 237 240 243 245 248 251 255
310 305 300 295 287 282 276 273 261 254 249 241 233 227 225 221 216 213 210 210 209 210 211 211 211 212 214 216 217 220 221 222 223 225 226 227 228 229 230 232 233 235 237 241 243 246 249 252 255
313 310 304 296 289 283 278 276 269 256 248 240 232 228 225 221 216 212 209 209 209 209 210 210 211 213 214 215 216 219 221 221 223 224 225 226 228 229 230 231 233 236 238 241 244 246 249 252 255
316 312 306 296 289 285 281 279 275 260 250 243 234 228 223 219 216 212 209 209 209 209 209 209 210 212 213 214 216 218 220 221 223 224 226 227 228 229 230 231 234 236 239 241 244 247 250 252 254
317 315 310 304 296 289 288 284 279 265 251 244 235 227 221 216 214 213 210 209 210 209 210 210 211 212 213 214 215 217 219 220 222 224 226 227 228 229 231 232 234 237 239 242 245 248 250 251 254
316 313 309 304 299 291 288 286 281 270 252 243 236 227 220 216 213 213 211 210 210 210 210 211 211 212 213 214 215 217 219 221 223 224 226 227 228 229 231 233 235 237 239 242 245 247 249 251 254
313 309 304 299 297 293 287 286 278 268 251 241 234 227 221 217 215 212 210 209 210 210 211 212 213 213 213 214 216 216 218 221 223 224 226 227 228 229 231 232 234 237 239 242 244 245 248 250 254
308 303 299 297 296 295 287 282 274 259 247 238 232 228 222 217 216 213 210 209 210 211 211 212 213 214 214 214 215 217 218 220 221 223 226 227 228 229 230 232 234 236 238 241 244 245 248 251 253
303 298 292 290 290 291 289 282 271 258 247 239 232 226 223 218 215 214 211 210 211 212 212 212 212 214 214 215 215 216 217 219 221 223 225 227 228 228 230 232 234 236 238 241 243 245 248 250 253
299 294 289 286 286 286 285 283 273 262 249 239 232 225 223 219 216 214 213 211 211 211 212 212 212 214 215 216 217 217 217 218 220 222 223 226 227 228 229 232 234 236 238 241 242 244 247 250 253
Height
5809 5809 5809 5808 5808 5808 5810 5815 5817 5821 5822 5824 5825 5825 5827 5829 5832 5836 5838 5840 5841 5844 5846 5849 5851 5854 5856 5858 5860 5862 5864 5866 5868 5869 5870 5872 5873 5874 5875 5875 5875 5875 5875 5876 5876 5876 5876 5876 5876
5800 5800 5799 5798 5798 5798 5803 5807 5809 5813 5814 5816 5816 5817 5819 5821 5824 5827 5830 5833 5835 5838 5841 5843 5846 5849 5851 5854 5856 5859 5861 5863 5864 5866 5867 5869 5870 5871 5872 5873 5873 5874 5874 5874 5874 5874 5874 5874 5874
5790 5789 5788 5787 5787 5790 5795 5798 5800 5802 5804 5806 5807 5808 5810 5814 5817 5819 5822 5825 5829 5831 5834 5837 5841 5843 5846 5849 5852 5854 5857 5859 5861 5863 5864 5866 5867 5869 5870 5871 5871 5872 5872 5872 5873 5873 5873 5873 5873
5779 5777 5776 5776 5777 5783 5785 5787 5787 5790 5793 5795 5796 5799 5802 5806 5809 5812 5814 5817 5821 5824 5827 5831 5834 5837 5840 5843 5846 5849 5852 5855 5857 5859 5861 5862 5864 5865 5867 5868 5869 5869 5870 5870 5871 5871 5871 5871 5871
5765 5764 5762 5762 5766 5772 5773 5774 5774 5777 5781 5783 5785 5789 5792 5797 5799 5802 5806 5809 5813 5817 5820 5824 5827 5831 5834 5837 5841 5844 5847 5850 5852 5855 5857 5859 5860 5862 5863 5865 5866 5867 5867 5868 5869 5869 5869 5869 5869
5752 5750 5749 5748 5754 5758 5759 5761 5761 5763 5767 5770 5772 5776 5782 5785 5788 5792 5796 5799 5804 5808 5812 5816 5820 5824 5828 5831 5835 5838 5841 5845 5847 5850 5852 5855 5857 5858 5860 5861 5863 5864 5865 5865 5866 5867 5867 5867 5867
5738 5735 5734 5736 5738 5742 5745 5745 5746 5748 5751 5756 5758 5762 5769 5773 5776 5781 5785 5789 5794 5798 5803 5808 5812 5816 5820 5824 5828 5832 5835 5839 5842 5845 5848 5850 5852 5854 5856 5858 5859 5860 5862 5862 5863 5864 5864 5864 5865
5721 5719 5718 5719 5720 5725 5729 5728 5730 5732 5735 5739 5742 5748 5755 5758 5762 5767 5772 5778 5783 5789 5794 5799 5804 5809 5813 5817 5821 5825 5829 5832 5836 5839 5842 5845 5848 5850 5852 5854 5855 5857 5858 5859 5860 5861 5861 5862 5862
5704 5702 5701 5704 5704 5708 5710 5710 5713 5714 5717 5721 5727 5732 5738 5742 5747 5753 5759 5766 5772 5778 5784 5789 5795 5800 5805 5810 5814 5818 5822 5826 5829 5833 5836 5840 5842 5845 5847 5849 5851 5853 5854 5856 5857 5858 5858 5859 5859
5687 5684 5686 5688 5687 5687 5690 5691 5694 5695 5699 5703 5708 5715 5720 5725 5731 5738 5746 5753 5760 5767 5774 5780 5785 5791 5797 5802 5806 5811 5815 5819 5823 5827 5831 5834 5837 5840 5843 5845 5847 5849 5850 5852 5853 5854 5855 5855 5856
5670 5669 5670 5669 5668 5668 5669 5672 5674 5675 5680 5685 5690 5696 5701 5707 5715 5723 5732 5740 5748 5755 5762 5769 5776 5782 5788 5793 5798 5803 5808 5812 5816 5820 5824 5828 5831 5834 5837 5840 5842 5844 5846 5847 5849 5850 5851 5852 5852
5655 5654 5652 5652 5651 5650 5650 5652 5654 5656 5661 5666 5670 5676 5683 5690 5699 5708 5717 5726 5734 5742 5750 5758 5765 5772 5778 5784 5790 5795 5800 5805 5810 5814 5818 5822 5825 5829 5832 5835 5837 5839 5841 5843 5845 5846 5847 5848 5849
5640 5639 5637 5634 5633 5632 5631 5632 5633 5637 5642 5646 5650 5656 5664 5673 5682 5692 5702 5710 5720 5729 5738 5746 5754 5761 5768 5775 5781 5787 5792 5798 5802 5806 5811 5815 5819 5823 5826 5829 5832 5834 5836 5838 5840 5841 5843 5844 5844
5627 5624 5622 5619 5617 5615 5613 5614 5615 5621 5624 5627 5632 5639 5647 5656 5666 5675 5686 5696 5706 5717 5726 5735 5743 5751 5758 5765 5772 5778 5784 5790 5794 5799 5804 5808 5813 5816 5820 5823 5826 5829 5831 5833 5835 5837 5838 5839 5840
5613 5610 5608 5605 5602 5600 5596 5597 5601 5605 5606 5610 5616 5623 5631 5640 5650 5660 5671 5682 5693 5704 5714 5723 5732 5740 5747 5755 5762 5770 5775 5781 5786 5792 5796 5801 5806 5810 5813 5817 5820 5823 5825 5827 5830 5831 5833 5834 5835
5600 5596 5594 5593 5589 5586 5583 5583 5589 5590 5591 5595 5600 5607 5616 5625 5635 5646 5657 5668 5679 5690 5701 5711 5720 5729 5737 5745 5753 5760 5766 5771 5778 5783 5789 5793 5798 5803 5807 5810 5814 5817 5819 5822 5824 5826 5828 5829 5830
5589 5585 5581 5580 5577 5574 5571 5571 5576 5575 5576 5581 5586 5593 5601 5610 5621 5632 5644 5655 5666 5678 5689 5699 5709 5718 5727 5735 5743 5750 5756 5762 5769 5775 5781 5786 5791 5795 5800 5804 5807 5811 5813 5816 5818 5820 5822 5823 5825
5578 5574 5571 5569 5567 5563 5560 5560 5564 5564 5565 5569 5574 5580 5588 5597 5609 5620 5631 5643 5654 5666 5677 5688 5698 5708 5717 5725 5733 5739 5746 5753 5760 5767 5773 5778 5783 5788 5793 5797 5801 5804 5807 5810 5812 5815 5816 5818 5819
5567 5563 5560 5560 5557 5553 5551 5551 5553 5555 5556 5559 5563 5569 5577 5586 5597 5607 5619 5631 5642 5654 5665 5676 5687 5697 5706 5715 5723 5731 5738 5745 5752 5758 5764 5770 5775 5780 5785 5790 5794 5797 5801 5804 5806 5808 5810 5812 5813
5559 5555 5552 5550 5548 5544 5543 5543 5545 5546 5548 5550 5554 5559 5567 5575 5585 5595 5607 5619 5631 5643 5654 5665 5677 5687 5697 5706 5715 5723 5729 5736 5743 5749 5755 5761 5767 5772 5778 5782 5787 5790 5794 5797 5800 5802 5804 5805 5807
5553 5548 5544 5541 5539 5537 5535 5536 5538 5539 5540 5542 5545 5550 5557 5565 5575 5585 5597 5609 5620 5632 5643 5655 5666 5677 5687 5697 5705 5712 5720 5726 5733 5741 5747 5753 5759 5764 5770 5775 5779 5783 5787 5790 5793 5795 5797 5799 5800
5547 5542 5537 5534 5531 5530 5530 5527 5532 5532 5533 5535 5538 5543 5548 5556 5565 5575 5586 5598 5610 5622 5633 5645 5656 5666 5677 5686 5695 5703 5711 5719 5726 5733 5738 5744 5750 5756 5761 5767 5771 5776 5779 5783 5786 5788 5790 5792 5793
5540 5536 5532 5529 5526 5525 5525 5522 5526 5526 5527 5529 5532 5536 5541 5548 5557 5566 5577 5589 5600 5612 5623 5635 5645 5656 5666 5676 5686 5694 5703 5711 5717 5723 5729 5735 5741 5747 5753 5758 5763 5768 5772 5775 5778 5781 5783 5785 5786
5535 5531 5528 5524 5522 5522 5521 5519 5521 5521 5522 5524 5526 5529 5534 5541 5549 5558 5568 5579 5590 5602 5613 5624 5635 5645 5656 5666 5676 5685 5693 5701 5708 5714 5721 5727 5733 5739 5745 5750 5755 5759 5764 5767 5770 5773 5775 5777 5779
5530 5526 5523 5520 5518 5518 5517 5516 5517 5516 5516 5517 5520 5523 5528 5534 5542 5550 5560 5570 5581 5592 5604 5615 5626 5636 5646 5656 5666 5675 5683 5691 5698 5705 5712 5718 5725 5731 5736 5742 5747 5751 5755 5759 5762 5765 5768 5770 5772
5527 5523 5521 5518 5516 5514 5513 5512 5513 5512 5511 5513 5515 5517 5522 5528 5535 5544 5553 5563 5573 5583 5595 5605 5616 5626 5637 5647 5656 5666 5674 5682 5690 5697 5703 5710 5716 5722 5728 5733 5738 5742 5747 5750 5754 5757 5760 5762 5764
5523 5520 5517 5514 5511 5510 5509 5509 5508 5507 5507 5508 5510 5513 5517 5523 5529 5537 5546 5556 5565 5575 5585 5596 5606 5617 5627 5637 5647 5656 5665 5673 5681 5688 5695 5701 5707 5713 5718 5724 5729 5734 5738 5742 5746 5749 5752 5754 5756
5519 5516 5514 5511 5507 5505 5505 5504 5503 5502 5502 5504 5505 5508 5512 5518 5524 5531 5539 5548 5557 5567 5577 5586 5597 5608 5618 5628 5638 5647 5655 5663 5672 5679 5686 5692 5698 5704 5710 5715 5720 5725 5729 5733 5737 5741 5744 5746 5748
5515 5512 5509 5506 5504 5502 5499 5501 5498 5497 5498 5499 5500 5503 5507 5512 5518 5525 5533 5541 5549 5559 5569 5578 5588 5598 5608 5619 5628 5637 5646 5654 5663 5670 5678 5684 5690 5695 5701 5707 5711 5716 5721 5725 5729 5733 5736 5738 5740
5509 5507 5504 5503 5500 5497 5494 5497 5494 5493 5493 5494 5495 5498 5501 5506 5512 5518 5525 5533 5542 5551 5560 5570 5580 5590 5600 5610 5619 5628 5637 5645 5654 5662 5669 5675 5681 5687 5693 5698 5703 5708 5713 5717 5721 5724 5728 5730 5732